sat.trackr.live / text

‹ back to catalog

ONEWEB-0621

NORAD 55162 · 2023-004Y

PAYLOAD ACTIVE UNKNOWN

§ Identity

Operator
Country
UK
Launch date
2023-01-10
Launch site
AFETR
Launch vehicle
Mass (kg)
RCS (m²)

Purposes: comms

External: N2YO · Heavens-Above · Gunter

§ Orbital elements

Epoch: 2026-05-25T02:58:09.618816Z

Period
109.81 min
Inclination
87.8917°
Eccentricity
0.0002020
Mean motion
13.11415084 rev/d
Perigee alt
1,216.2 km
Apogee alt
1,219.2 km
Semi-major
7,595.8 km
B*
1.3754e-3
RAAN
25.6531°
Arg perigee
85.1772°
Mean anomaly
274.9587°
Rev number
16,278

§ Raw data

ONEWEB-06211 55162U 23004Y   26145.12372244  .00000500  00000+0  13754-2 0  99972 55162  87.8917  25.6531 0002020  85.1772 274.9587 13.11415084162781

JSON: /api/v1/satellites/55162 · /tle

For live sub-satellite position, see the globe view (requires WebGL).

§ Visibility from observer

Set your observer location to see the next 7 days of passes ≥ 10°. The values pass through the URL so the page stays shareable.

No JS? Fill the form by hand. The geolocation button needs JavaScript.